Powrót do katalogu

STARLINK-34571

AktywnyŁącznośćVLEO
NORAD 64914·PAYLOAD·🇺🇸 United States

Wystrzelony Jul 26, 2025 z Cape Canaveral Space Force Station

Loading…

Następne Przeloty (najbliższe 24 godziny)

TLE

ŚwieżeSource: CelesTrak SupGP

Epoka: Sep 14, 2026, 23:03 UTC

1 64914C 25157L   26257.96090278 -.00042408  00000+0 -12524-2 0  2579
2 64914  53.1576 183.6550 0001290 103.1990 216.9648 15.34424464    10

Śledź STARLINK-34571 w czasie rzeczywistym z AllMySat

Download on the App Store